Laurent Verva

Laurent Verva

Statistiques 2026

  • Courses courues : 135
  • Nb de victoires : 2
  • Nb de places : 12
  • Écart gagnant : -
  • Réussite à la gagne : 1%
  • Réussite à la place : 9%
Musique : 1a 5a 6a 5a 8a 4a 6a Da Da 0a 4a 0a 8a 9a Da Da 1a Da
DateRangCatégorieAlloc.Dist.HippodromeChevalRed. KmSpé.
10/06/19 D Trot 12 000€ 2 900m Arras Fysalia Attelé
10/06/19 D Trot 16 000€ 2 900m Arras Creon de la Besvre Attelé
10/06/19 2 Trot 13 000€ 2 900m Arras Goldilocks Attelé
23/06/19 D Trot 13 000€ 2 900m Arras Gamin de Marny Attelé
23/06/19 4 Trot 20 000€ 2 925m Arras Choomy Deladou Attelé
23/06/19 8 Trot 13 000€ 2 900m Arras Filae des Salines Attelé
06/07/19 4 Trot 12 000€ 2 900m Amiens Filae des Salines 1'18"5 Attelé
06/07/19 3 Trot 12 000€ 2 900m Amiens Filou de Fromiee 1'18"5 Attelé
03/08/19 6 Trot 22 000€ 2 900m Amiens Au Temps Dubonheur 1'16"5 Attelé
03/08/19 0 Trot 17 000€ 2 925m Amiens Eros In Love Attelé
18/08/19 3 Trot 12 000€ 2 900m Arras Gourmande Attelé
18/08/19 D Trot 12 000€ 2 900m Arras Gazaro Mencourt Attelé
18/08/19 4 Trot 13 000€ 2 900m Arras Fysalia Attelé
18/08/19 D Trot 14 000€ 2 925m Arras Eoliathira Attelé
18/08/19 4 Trot 16 000€ 2 900m Arras Ethano de Bouteau Attelé
18/08/19 1 Trot 13 000€ 2 900m Arras French Flair TNC Attelé
04/09/19 8 Trot 17 000€ 2 900m Amiens Dauphine d'Alci 1'17"3 Attelé
05/10/19 9 Trot 17 000€ 2 900m Amiens Daisy de la Folie 1'18"0 Attelé
26/10/19 2 Trot 15 000€ 2 900m Amiens Etoile Dubonheur 1'16"2 Attelé
26/10/19 3 Trot 22 000€ 2 900m Amiens Diego du Houlet 1'15"5 Attelé
01/12/19 D Trot 13 000€ 2 900m Amiens Gelina de Piquet Attelé
01/12/19 4 Trot 22 000€ 2 900m Amiens Buxus Calendes 1'16"4 Attelé
01/12/19 4 Trot 13 000€ 2 900m Amiens Flashback Syga 1'18"6 Attelé
01/12/19 D Trot 13 000€ 2 900m Amiens Fille des Marais Attelé
11/12/19 0 Trot 23 000€ 2 925m Amiens Buxus Calendes Attelé
17/12/19 9 Trot 17 000€ 2 925m Amiens Ethano de Bouteau 1'16"7 Attelé
17/12/19 7 Trot 26 000€ 2 925m Amiens Buxus Calendes 1'16"7 Attelé
04/03/20 0 Trot 23 000€ 2 925m Amiens Buxus Calendes Attelé lire

N'a joué aucun rôle utile.

17/05/20 7 Trot 12 000€ 2 900m Arras Herisau de Paumar Attelé
17/05/20 2 Trot 11 000€ 2 900m Arras Gold Winner Nice Attelé
17/05/20 3 Trot 12 000€ 2 925m Arras Fire Bird Attelé
14/06/20 4 Trot 11 000€ 2 900m Arras Gladys de Tillard Attelé
14/06/20 D Trot 11 000€ 2 900m Arras Gismo Attelé
14/06/20 2 Trot 12 000€ 2 900m Arras Harmonie Picarde Attelé
14/06/20 7 Trot 15 000€ 2 900m Arras Elisee du Pont Attelé
04/07/20 3 Trot 21 000€ 2 900m Amiens Deauvillaise 1'15"2 Attelé
04/07/20 7 Trot 13 000€ 2 900m Amiens Gold des Pres 1'17"0 Attelé
07/08/20 6 Trot 18 000€ 2 900m Amiens Evla de Vive 1'15"5 Attelé
15/08/20 1 Trot 11 000€ 2 900m Arras Hysia d'huon Attelé
15/08/20 4 Trot 11 000€ 2 900m Arras Holly d'Ardennes Attelé
15/08/20 0 Trot 13 000€ 2 900m Arras Elisee du Pont Attelé
15/08/20 0 Trot 18 000€ 2 900m Arras Eugene Gaillard Attelé
15/08/20 3 Trot 11 000€ 2 900m Arras Guess Mencourt Attelé
23/08/20 6 Trot 11 000€ 2 900m Arras Hippie du Toulay Attelé
23/08/20 5 Trot 11 000€ 2 900m Arras Hussard du Vallon Attelé
23/08/20 D Trot 12 000€ 2 900m Arras Guess Mencourt Attelé
23/08/20 D Trot 15 000€ 2 900m Arras Fortune de Cerisy Attelé
23/08/20 D Trot 14 000€ 2 900m Arras Fille des Marais Attelé
23/08/20 1 Trot 12 000€ 2 900m Arras Gold Winner Nice TNC Attelé
02/09/20 3 Trot 16 000€ 2 900m Amiens Esther du Ganep 1'15"7 Attelé lire

Vite en bon rang en dedans, a tardé pour s'exprimer avant de bien terminer.